TimeCDT,TemperatureF,Dew PointF,Humidity,Sea Level PressureIn,VisibilityMPH,Wind Direction,Wind SpeedMPH,Gust SpeedMPH,PrecipitationIn,Events,Conditions,WindDirDegrees,DateUTC
12:54 AM,68.0,55.9,65,29.99,10.0,Calm,Calm,-,N/A,,Clear,0,2013-09-28 05:54:00
1:54 AM,66.0,55.0,68,30.00,10.0,Calm,Calm,-,N/A,,Clear,0,2013-09-28 06:54:00
2:54 AM,68.0,54.0,61,29.98,10.0,SE,5.8,-,N/A,,Partly Cloudy,140,2013-09-28 07:54:00
3:54 AM,66.9,55.0,66,29.98,10.0,SSE,3.5,-,N/A,,Clear,150,2013-09-28 08:54:00
4:54 AM,66.9,55.9,68,29.98,10.0,South,5.8,-,N/A,,Clear,170,2013-09-28 09:54:00
5:54 AM,66.9,57.0,70,29.99,10.0,SSE,4.6,-,N/A,,Scattered Clouds,160,2013-09-28 10:54:00
6:54 AM,66.9,57.9,73,30.01,10.0,South,6.9,-,N/A,,Mostly Cloudy,170,2013-09-28 11:54:00
7:54 AM,68.0,59.0,73,30.01,10.0,Variable,5.8,-,N/A,,Scattered Clouds,0,2013-09-28 12:54:00
8:54 AM,71.1,60.1,68,30.02,10.0,Variable,6.9,-,N/A,,Scattered Clouds,0,2013-09-28 13:54:00
9:54 AM,75.0,61.0,62,30.01,10.0,South,10.4,16.1,N/A,,Scattered Clouds,190,2013-09-28 14:54:00
10:54 AM,79.0,62.1,56,29.99,10.0,South,15.0,21.9,N/A,,Scattered Clouds,190,2013-09-28 15:54:00
11:54 AM,81.0,62.1,52,29.98,10.0,South,13.8,23.0,N/A,,Mostly Cloudy,190,2013-09-28 16:54:00
12:54 PM,82.9,62.1,49,29.96,10.0,SSW,16.1,21.9,N/A,,Mostly Cloudy,200,2013-09-28 17:54:00
1:54 PM,84.0,62.1,47,29.94,10.0,SSW,8.1,17.3,N/A,,Mostly Cloudy,200,2013-09-28 18:54:00
2:54 PM,81.0,62.1,52,29.94,10.0,SSW,5.8,-,N/A,,Overcast,200,2013-09-28 19:54:00
3:54 PM,81.0,63.0,54,29.92,10.0,South,5.8,-,N/A,,Overcast,190,2013-09-28 20:54:00
4:54 PM,81.0,63.0,54,29.92,10.0,Variable,5.8,-,N/A,,Overcast,0,2013-09-28 21:54:00
5:54 PM,77.0,66.0,69,29.93,10.0,SSW,3.5,-,0.00,,Overcast,210,2013-09-28 22:54:00
6:54 PM,77.0,64.0,64,29.94,10.0,SSW,6.9,-,N/A,,Overcast,200,2013-09-28 23:54:00
7:54 PM,75.0,64.9,71,29.94,10.0,SW,5.8,-,N/A,,Partly Cloudy,220,2013-09-29 00:54:00
8:54 PM,73.9,64.9,73,29.94,10.0,Calm,Calm,-,N/A,,Scattered Clouds,0,2013-09-29 01:54:00
9:54 PM,71.1,66.9,87,29.97,10.0,WSW,6.9,-,0.00,,Overcast,250,2013-09-29 02:54:00
10:54 PM,70.0,68.0,93,29.97,7.0,SW,3.5,-,0.01,,Overcast,220,2013-09-29 03:54:00
11:13 PM,71.6,68.0,88,29.99,7.0,SSW,4.6,-,N/A,,Overcast,210,2013-09-29 04:13:00
11:31 PM,69.8,66.2,88,30.00,8.0,NW,12.7,-,0.00,Rain,Light Rain,320,2013-09-29 04:31:00
11:54 PM,66.9,64.0,90,29.99,10.0,NW,11.5,-,0.00,,Overcast,320,2013-09-29 04:54:00